This demonstration page uses our WeatherBlox Daily Observations layout. Learn more.

Left ArrowRight Arrow

Hourly Observations for August 24, 2019

Temp ( °F °C ) Dew Point ( °F °C ) Humidity (%) Winds ( mph kmh ) Pressure ( in mb ) Visibility ( mi km ) Precip ( " mm )
12:53 am 00:53 Clear 74 23.3 67 19.4 79 79 N 3 6 29.82 1010 10 16 0.00 0.00
1:53 am 01:53 Clear 73 22.8 67 19.4 81 81 ENE 7 11 29.82 1010 10 16 0.00 0.00
2:53 am 02:53 Clear 72 22.2 65 18.3 79 79 ENE 5 7 29.84 1011 10 16 0.00 0.00
3:53 am 03:53 Clear 72 22.2 63 17.2 73 73 E 7 11 29.86 1011 10 16 0.00 0.00
4:53 am 04:53 Clear 71 21.7 64 17.8 79 79 NE 9 15 29.85 1011 10 16 0.00 0.00
5:53 am 05:53 Clear 71 21.7 65 18.3 81 81 E 8 13 29.83 1010 10 16 0.00 0.00
6:53 am 06:53 Clear 70 21.1 66 18.9 87 87 E 6 9 29.85 1011 10 16 0.00 0.00
7:53 am 07:53 Sunny 71 21.7 67 19.4 87 87 E 8 13 29.87 1012 10 16 0.00 0.00
8:53 am 08:53 Sunny 75 23.9 67 19.4 76 76 ESE 12 19 29.88 1012 10 16 0.00 0.00
9:53 am 09:53 Sunny 78 25.6 67 19.4 69 69 SE 10 17 29.88 1012 10 16 0.00 0.00
10:53 am 10:53 Sunny 81 27.2 67 19.4 62 62 SSE 6 9 29.88 1012 10 16 0.00 0.00
11:53 am 11:53 Sunny 84 28.9 66 18.9 55 55 W 3 6 29.86 1011 10 16 0.00 0.00
12:53 pm 12:53 Sunny 89 31.7 62 16.7 41 41 WNW 7 11 29.83 1010 10 16 0.00 0.00
1:53 pm 13:53 Sunny 92 33.3 61 16.1 36 36 VRB 6 9 29.82 1010 10 16 0.00 0.00
2:53 pm 14:53 Sunny 94 34.4 59 15 31 31 VRB 3 6 29.80 1009 10 16 0.00 0.00
3:53 pm 15:53 Sunny 94 34.4 56 13.3 28 28 Calm 29.77 1008 10 16 0.00 0.00
4:53 pm 16:53 Sunny 98 36.7 56 13.3 24 24 NE 3 6 29.74 1007 10 16 0.00 0.00
5:53 pm 17:53 Sunny 98 36.7 56 13.3 24 24 VRB 5 7 29.73 1007 10 16 0.00 0.00
6:53 pm 18:53 Sunny 97 36.1 55 12.8 24 24 ESE 7 11 29.73 1007 10 16 0.00 0.00
7:53 pm 19:53 Sunny 95 35 54 12.2 25 25 ESE 8 13 29.74 1007 10 16 0.00 0.00
8:53 pm 20:53 Clear 90 32.2 59 15 35 35 SE 8 13 29.75 1008 10 16 0.00 0.00
9:53 pm 21:53 Clear 87 30.6 61 16.1 42 42 SE 13 20 29.78 1008 10 16 0.00 0.00
10:53 pm 22:53 Clear 83 28.3 64 17.8 53 53 SE 13 20 29.80 1009 10 16 0.00 0.00
11:53 pm 23:53 Clear 82 27.8 65 18.3 56 56 SE 13 20 29.80 1009 10 16 0.00 0.00

Powered by AerisWeather